TimeEDT,TemperatureF,Dew PointF,Humidity,Sea Level PressureIn,VisibilityMPH,Wind Direction,Wind SpeedMPH,Gust SpeedMPH,PrecipitationIn,Events,Conditions,WindDirDegrees,DateUTC
12:15 AM,56.5,44.8,65,30.08,10.0,Calm,Calm,-,N/A,,Overcast,0,2013-05-15 04:15:00
12:35 AM,56.7,44.4,64,30.07,10.0,Calm,Calm,-,N/A,,Overcast,0,2013-05-15 04:35:00
12:55 AM,54.9,47.8,77,30.07,10.0,Calm,Calm,-,N/A,,Overcast,0,2013-05-15 04:55:00
1:15 AM,54.5,48.7,81,30.06,10.0,Calm,Calm,-,N/A,,Overcast,0,2013-05-15 05:15:00
1:35 AM,54.5,47.7,78,30.04,10.0,Calm,Calm,-,N/A,,Overcast,0,2013-05-15 05:35:00
1:55 AM,56.5,45.9,68,30.04,10.0,Calm,Calm,-,N/A,,Overcast,0,2013-05-15 05:55:00
2:15 AM,54.0,49.1,84,30.03,10.0,Calm,Calm,-,N/A,,Overcast,0,2013-05-15 06:15:00
2:35 AM,54.7,48.0,78,30.02,10.0,Calm,Calm,-,N/A,,Mostly Cloudy,0,2013-05-15 06:35:00
2:55 AM,52.0,48.7,89,30.02,10.0,Calm,Calm,-,N/A,,Mostly Cloudy,0,2013-05-15 06:55:00
3:15 AM,51.3,48.2,89,30.02,10.0,Calm,Calm,-,N/A,,Overcast,0,2013-05-15 07:15:00
3:35 AM,50.9,47.7,89,30.01,10.0,Calm,Calm,-,N/A,,Scattered Clouds,0,2013-05-15 07:35:00
3:55 AM,50.7,47.3,88,30.00,10.0,Calm,Calm,-,N/A,,Clear,0,2013-05-15 07:55:00
4:15 AM,51.8,46.8,83,30.01,10.0,Calm,Calm,-,N/A,,Clear,0,2013-05-15 08:15:00
4:35 AM,48.7,47.8,97,30.00,10.0,Calm,Calm,-,N/A,,Scattered Clouds,0,2013-05-15 08:35:00
4:55 AM,48.7,47.7,96,30.00,10.0,Calm,Calm,-,N/A,,Mostly Cloudy,0,2013-05-15 08:55:00
5:15 AM,48.2,47.1,96,30.00,10.0,Calm,Calm,-,N/A,,Scattered Clouds,0,2013-05-15 09:15:00
5:35 AM,47.3,46.2,96,30.00,10.0,Calm,Calm,-,N/A,,Clear,0,2013-05-15 09:35:00
5:55 AM,48.7,47.7,96,30.00,10.0,Calm,Calm,-,N/A,,Clear,0,2013-05-15 09:55:00
6:15 AM,47.3,46.4,97,30.00,10.0,Calm,Calm,-,N/A,,Clear,0,2013-05-15 10:15:00
6:35 AM,47.3,46.8,98,30.00,10.0,Calm,Calm,-,N/A,,Clear,0,2013-05-15 10:35:00
6:55 AM,49.8,48.0,94,30.00,10.0,Calm,Calm,-,N/A,,Clear,0,2013-05-15 10:55:00
7:15 AM,52.7,48.9,87,30.00,10.0,Calm,Calm,-,N/A,,Clear,0,2013-05-15 11:15:00
7:35 AM,56.1,48.4,75,29.99,10.0,Calm,Calm,-,N/A,,Clear,0,2013-05-15 11:35:00
7:55 AM,58.6,48.7,70,29.99,10.0,SSW,4.6,-,N/A,,Clear,200,2013-05-15 11:55:00
8:15 AM,59.4,48.0,66,29.99,10.0,WSW,4.6,-,N/A,,Clear,240,2013-05-15 12:15:00
8:35 AM,60.3,49.1,67,29.98,10.0,SSW,3.5,-,N/A,,Clear,210,2013-05-15 12:35:00
8:55 AM,60.3,48.9,66,29.98,10.0,SW,3.5,-,N/A,,Clear,220,2013-05-15 12:55:00
9:15 AM,60.8,49.3,66,29.99,10.0,SW,3.5,-,N/A,,Scattered Clouds,220,2013-05-15 13:15:00
9:35 AM,61.2,49.8,66,29.99,10.0,Calm,Calm,-,N/A,,Scattered Clouds,0,2013-05-15 13:35:00
9:55 AM,61.2,51.1,69,30.00,10.0,Calm,Calm,-,N/A,Rain,Light Rain,0,2013-05-15 13:55:00
10:15 AM,61.3,52.0,71,29.98,10.0,South,3.5,-,N/A,Rain,Light Rain,180,2013-05-15 14:15:00
10:35 AM,61.2,52.5,73,29.97,10.0,SSW,4.6,-,N/A,Rain,Light Rain,200,2013-05-15 14:35:00
11:15 AM,67.6,55.4,65,29.96,10.0,SW,4.6,-,N/A,,Clear,220,2013-05-15 15:15:00
11:35 AM,70.7,56.8,61,29.95,10.0,SSW,5.8,-,N/A,,Clear,200,2013-05-15 15:35:00
11:55 AM,73.8,58.3,58,29.93,10.0,South,4.6,-,N/A,,Clear,170,2013-05-15 15:55:00
12:15 PM,77.2,59.4,54,29.92,10.0,SSW,8.1,-,N/A,,Clear,210,2013-05-15 16:15:00
12:35 PM,79.3,60.4,52,29.92,10.0,SSW,5.8,-,N/A,,Clear,210,2013-05-15 16:35:00
12:55 PM,80.6,59.5,49,29.90,10.0,SSW,8.1,18.4,N/A,,Clear,210,2013-05-15 16:55:00
1:15 PM,82.4,60.3,47,29.89,10.0,SSW,10.4,-,N/A,,Clear,200,2013-05-15 17:15:00
1:35 PM,83.5,59.9,45,29.88,10.0,SSW,12.7,18.4,N/A,,Clear,210,2013-05-15 17:35:00
1:55 PM,84.2,59.9,44,29.88,10.0,WSW,11.5,19.6,N/A,,Clear,240,2013-05-15 17:55:00
2:15 PM,84.6,61.2,45,29.87,10.0,SSW,12.7,16.1,N/A,,Clear,210,2013-05-15 18:15:00
2:35 PM,84.7,61.0,45,29.86,10.0,SSW,11.5,17.3,N/A,,Clear,210,2013-05-15 18:35:00
2:55 PM,85.1,60.4,43,29.85,10.0,SW,8.1,19.6,N/A,,Clear,220,2013-05-15 18:55:00
3:15 PM,86.0,60.3,42,29.84,10.0,SSW,13.8,19.6,N/A,,Clear,200,2013-05-15 19:15:00
3:35 PM,86.2,61.0,43,29.83,10.0,SSW,10.4,-,N/A,,Clear,210,2013-05-15 19:35:00
3:55 PM,86.2,61.0,43,29.82,10.0,SSW,8.1,18.4,N/A,,Clear,210,2013-05-15 19:55:00
4:15 PM,86.4,60.8,42,29.81,10.0,SSW,11.5,17.3,N/A,,Clear,210,2013-05-15 20:15:00
4:35 PM,86.5,60.4,41,29.80,10.0,SSW,10.4,16.1,N/A,,Clear,210,2013-05-15 20:35:00
4:55 PM,86.9,60.3,41,29.79,10.0,SSW,13.8,20.7,N/A,,Clear,210,2013-05-15 20:55:00
5:15 PM,86.9,60.4,41,29.78,10.0,SSW,10.4,19.6,N/A,,Clear,210,2013-05-15 21:15:00
5:35 PM,86.7,61.2,42,29.77,10.0,SW,9.2,17.3,N/A,,Clear,220,2013-05-15 21:35:00
5:55 PM,86.7,61.3,42,29.76,10.0,SSW,10.4,23.0,N/A,,Clear,200,2013-05-15 21:55:00
6:15 PM,86.5,61.5,43,29.76,10.0,SSW,15.0,21.9,N/A,,Clear,210,2013-05-15 22:15:00
6:35 PM,86.2,61.9,44,29.75,10.0,SSW,11.5,19.6,N/A,,Clear,210,2013-05-15 22:35:00
6:55 PM,86.0,61.7,44,29.76,10.0,SSW,11.5,19.6,N/A,,Clear,210,2013-05-15 22:55:00
7:15 PM,85.1,61.9,46,29.75,10.0,SSW,10.4,19.6,N/A,,Clear,210,2013-05-15 23:15:00
7:35 PM,84.2,62.1,47,29.76,10.0,SSW,8.1,17.3,N/A,,Clear,210,2013-05-15 23:35:00
7:55 PM,83.8,62.6,49,29.76,10.0,South,6.9,-,N/A,,Clear,190,2013-05-15 23:55:00
8:15 PM,82.8,62.2,50,29.76,10.0,SSW,6.9,-,N/A,,Clear,200,2013-05-16 00:15:00
8:35 PM,82.4,62.2,50,29.76,10.0,SSW,6.9,-,N/A,,Clear,210,2013-05-16 00:35:00
8:55 PM,81.9,62.8,52,29.77,10.0,SSW,8.1,-,N/A,,Clear,210,2013-05-16 00:55:00
9:15 PM,81.1,62.8,53,29.78,10.0,SSW,6.9,-,N/A,,Clear,210,2013-05-16 01:15:00
9:35 PM,80.6,62.8,54,29.79,10.0,SW,6.9,-,N/A,,Clear,220,2013-05-16 01:35:00
9:55 PM,80.6,63.1,55,29.81,10.0,SW,8.1,-,N/A,,Clear,230,2013-05-16 01:55:00
10:15 PM,80.6,63.3,55,29.82,10.0,WSW,5.8,-,N/A,,Clear,240,2013-05-16 02:15:00
10:35 PM,79.0,62.8,57,29.82,10.0,WSW,5.8,-,N/A,,Clear,240,2013-05-16 02:35:00
10:55 PM,78.8,63.1,59,29.82,10.0,WSW,4.6,-,N/A,,Clear,250,2013-05-16 02:55:00
11:15 PM,77.9,63.1,60,29.82,10.0,WSW,4.6,-,N/A,,Clear,250,2013-05-16 03:15:00
11:35 PM,77.2,62.8,61,29.83,10.0,WSW,8.1,-,N/A,,Clear,240,2013-05-16 03:35:00
11:55 PM,77.0,62.4,61,29.83,10.0,WSW,5.8,-,N/A,,Clear,250,2013-05-16 03:55:00